Boone, NC

8:40 AM EST on December 14, 2019 (GMT -0500)
Boone

Weather History for KTNB - November, 2019

Change the Weather History Date:

Tuesday, November 12, 2019

  Actual Average (KGEV) Record (KGEV)
Temperature  
Mean Temperature 32 °F -  
Max Temperature 49 °F 53 °F 69 °F (1989)
Min Temperature 15 °F 33 °F 20 °F (1973)
Degree Days  
Heating Degree Days 33    
Moisture  
Dew Point 23 °F    
Average Humidity 79    
Maximum Humidity 98    
Minimum Humidity 63    
Precipitation  
Precipitation 0.09 in - - ()
Sea Level Pressure  
Sea Level Pressure 30.00 in    
Wind  
Wind Speed 12 mph (NW)    
Max Wind Speed 29 mph    
Max Gust Speed 44 mph    
Visibility 8 miles    
Events Rain , Snow    
Averages and records for this station are not official NWS values.
T = Trace of Precipitation, MM = Missing Value Source: NWS Daily Summary

Daily Weather History Graph

Daily Weather History Graph

Search for Another Location

Airport or City:

Astronomy

Nov. 12, 2019 Rise Set
Actual Time 7:00 AM EST 5:20 PM EST
Civil Twilight 6:33 AM EST 5:48 PM EST
Nautical Twilight 6:02 AM EST 6:18 PM EST
Astronomical Twilight 5:31 AM EST 6:49 PM EST
Moon 5:46 PM EST (11/12) 6:52 AM EST (11/12)
Length of Visible Light 11h 14m
Length of Day
10h 20m
Full, 100% of the Moon is Illuminated
Nov 12
Full
Nov 19
Last Quarter
Nov 26
New
Dec 4
First Quarter
Dec 12
Full

Hourly Weather History & Observations

Time (EST) Temp. Windchill Dew Point Humidity Pressure Visibility Wind Dir Wind Speed Gust Speed Precip Events Conditions
12:15 AM 49.5 °F - 37.4 °F 63% 29.96 in 10.0 mi West 6.9 mph - N/A   Unknown
12:35 AM 49.6 °F - 37.4 °F 63% 29.95 in 10.0 mi Calm Calm - N/A   Unknown
12:55 AM 49.6 °F - 37.4 °F 63% 29.95 in 10.0 mi West 3.5 mph - N/A   Unknown
1:55 AM 49.5 °F - 37.6 °F 64% 29.94 in 10.0 mi Calm Calm - N/A   Light Drizzle
2:15 AM 48.2 °F - 38.7 °F 70% 29.94 in 10.0 mi West 6.9 mph - N/A Rain Light Rain
2:35 AM 46.9 °F - 40.1 °F 77% 29.94 in 10.0 mi West 10.4 mph - N/A Rain Rain
2:55 AM 46.0 °F 41.0 °F 40.6 °F 81% 29.92 in 10.0 mi West 10.4 mph 16.1 mph N/A Rain Rain
3:15 AM 45.7 °F 42.0 °F 41.2 °F 84% 29.91 in 10.0 mi West 6.9 mph - N/A   Drizzle
3:35 AM 45.5 °F - 41.4 °F 85% 29.91 in 10.0 mi Calm Calm - N/A   Light Drizzle
3:55 AM 45.7 °F - 41.9 °F 87% 29.89 in 10.0 mi Calm Calm - N/A   Light Drizzle
4:15 AM 45.7 °F 42.7 °F 41.5 °F 85% 29.88 in 10.0 mi WNW 5.8 mph - N/A   Light Drizzle
4:35 AM 45.7 °F 41.0 °F 42.4 °F 88% 29.87 in 7.0 mi WNW 9.2 mph - N/A   Light Drizzle
4:55 AM 45.0 °F 38.5 °F 43.7 °F 95% 29.88 in 10.0 mi WNW 13.8 mph - N/A   Drizzle
5:15 AM 43.3 °F 35.8 °F 42.1 °F 95% 29.89 in 7.0 mi WNW 16.1 mph 28.8 mph 0.01 in Rain Light Rain
5:35 AM 42.3 °F 33.6 °F 41.0 °F 95% 29.89 in 10.0 mi WNW 19.6 mph 28.8 mph 0.01 in   Light Drizzle
5:55 AM 41.0 °F 32.2 °F 39.0 °F 93% 29.91 in 10.0 mi WNW 18.4 mph 26.5 mph 0.01 in   Unknown
6:15 AM 38.1 °F 28.8 °F 35.8 °F 91% 29.92 in 7.0 mi WNW 17.3 mph 31.1 mph N/A   Drizzle
6:35 AM 36.0 °F 26.3 °F 34.3 °F 94% 29.93 in 7.0 mi West 16.1 mph 24.2 mph N/A Rain Rain
6:55 AM 34.5 °F 24.1 °F 33.1 °F 94% 29.95 in 5.0 mi WNW 17.3 mph 26.5 mph N/A Rain Light Rain
7:15 AM 32.5 °F 21.5 °F 32.0 °F 98% 29.96 in 2.0 mi WNW 17.3 mph 24.2 mph 0.01 in Snow Light Snow
7:35 AM 31.8 °F 22.3 °F 31.1 °F 97% 29.97 in 1.0 mi WNW 12.7 mph 23.0 mph 0.07 in Snow Light Snow
7:55 AM 30.6 °F 20.2 °F 29.5 °F 96% 29.97 in 1.0 mi WNW 13.8 mph 21.9 mph 0.08 in Snow Light Snow
8:15 AM 29.7 °F 18.2 °F 28.9 °F 97% 29.97 in 0.8 mi NW 16.1 mph 23.0 mph N/A Snow Light Snow
8:35 AM 29.3 °F 18.6 °F 27.0 °F 91% 29.97 in 1.5 mi NW 13.8 mph 25.3 mph N/A Snow Light Snow
8:55 AM 29.1 °F 18.9 °F 26.4 °F 90% 29.97 in 1.8 mi NW 12.7 mph 26.5 mph N/A Snow Light Snow
9:15 AM 29.1 °F 16.4 °F 25.7 °F 87% 29.97 in 4.0 mi NW 19.6 mph 32.2 mph N/A   Mist
9:35 AM 28.4 °F 15.8 °F 25.0 °F 87% 29.96 in 4.0 mi NW 18.4 mph 34.5 mph N/A   Mist
9:55 AM 28.0 °F 15.7 °F 23.9 °F 84% 29.98 in 10.0 mi NW 17.3 mph 33.4 mph N/A   Unknown
10:15 AM 27.1 °F 15.4 °F 22.8 °F 84% 29.98 in 10.0 mi NW 15.0 mph 40.3 mph N/A   Unknown
10:35 AM 27.3 °F 14.4 °F 22.1 °F 81% 29.97 in 10.0 mi WNW 18.4 mph 33.4 mph N/A   Scattered Clouds
10:55 AM 26.8 °F 12.9 °F 22.1 °F 83% 29.97 in 10.0 mi NW 20.7 mph 38.0 mph N/A   Mostly Cloudy
11:15 AM 26.8 °F 14.9 °F 23.2 °F 86% 29.96 in 5.0 mi NW 15.0 mph 31.1 mph N/A   Mist
11:35 AM 26.2 °F 12.2 °F 22.8 °F 87% 29.97 in 7.0 mi NW 20.7 mph 32.2 mph N/A   Unknown
11:55 AM 25.7 °F 13.1 °F 22.1 °F 86% 29.97 in 10.0 mi NW 16.1 mph 38.0 mph N/A   Unknown
12:15 PM 26.1 °F 12.7 °F 21.4 °F 82% 29.97 in 10.0 mi NW 18.4 mph 34.5 mph N/A   Unknown
12:35 PM 25.3 °F 11.8 °F 20.3 °F 81% 29.96 in 10.0 mi NNW 18.4 mph 32.2 mph N/A   Unknown
12:55 PM 25.0 °F 8.6 °F 20.1 °F 82% 29.96 in 10.0 mi NW 27.6 mph 36.8 mph N/A   Unknown
1:15 PM 24.6 °F 9.1 °F 20.1 °F 83% 29.96 in 10.0 mi NW 24.2 mph 39.1 mph N/A   Unknown
1:55 PM 24.4 °F 8.2 °F 18.0 °F 76% 29.97 in 10.0 mi NNW 26.5 mph 41.4 mph N/A   Unknown
2:15 PM 24.4 °F 9.9 °F 18.0 °F 76% 29.98 in 10.0 mi NW 20.7 mph 35.7 mph N/A   Unknown
2:35 PM 24.3 °F 8.6 °F 17.2 °F 75% 29.99 in 10.0 mi NW 24.2 mph 35.7 mph N/A   Unknown
2:55 PM 23.9 °F 7.2 °F 16.0 °F 72% 29.99 in 10.0 mi WNW 27.6 mph 35.7 mph N/A   Unknown
3:15 PM 23.0 °F 6.9 °F 15.1 °F 72% 30.02 in 10.0 mi NW 24.2 mph 38.0 mph N/A   Unknown
3:35 PM 22.6 °F 7.1 °F 15.1 °F 73% 30.01 in 10.0 mi NW 21.9 mph 42.6 mph N/A   Unknown
3:55 PM 21.9 °F 5.1 °F 14.9 °F 74% 30.02 in 10.0 mi NW 25.3 mph 39.1 mph N/A   Unknown
4:15 PM 21.2 °F 4.2 °F 14.4 °F 75% 30.02 in 5.0 mi WNW 25.3 mph 43.7 mph N/A Snow Light Snow
4:35 PM 20.8 °F 2.8 °F 13.1 °F 72% 30.03 in 10.0 mi NW 28.8 mph 39.1 mph N/A Snow Light Snow
4:55 PM 20.7 °F 6.1 °F 12.6 °F 71% 30.03 in 10.0 mi WNW 17.3 mph 31.1 mph N/A   Unknown
5:15 PM 20.8 °F 5.5 °F 12.6 °F 70% 30.03 in 10.0 mi WNW 19.6 mph 26.5 mph N/A Snow Light Snow
5:35 PM 20.8 °F 6.4 °F 12.9 °F 71% 30.04 in 10.0 mi WNW 17.3 mph 27.6 mph N/A Snow Light Snow
5:55 PM 20.8 °F 6.8 °F 13.6 °F 74% 30.05 in 10.0 mi NW 16.1 mph 26.5 mph N/A Snow Light Snow
6:15 PM 21.0 °F 8.6 °F 14.4 °F 75% 30.05 in 7.0 mi NW 12.7 mph 33.4 mph N/A Snow Light Snow
6:35 PM 20.8 °F 6.4 °F 13.3 °F 73% 30.06 in 10.0 mi WNW 17.3 mph 27.6 mph N/A Snow Light Snow
6:55 PM 20.5 °F 3.5 °F 13.3 °F 74% 30.06 in 7.0 mi WNW 24.2 mph 34.5 mph N/A Snow Light Snow
7:15 PM 20.3 °F 5.7 °F 13.1 °F 74% 30.07 in 7.0 mi WNW 17.3 mph 23.0 mph N/A Snow Light Snow
7:35 PM 20.1 °F 6.9 °F 12.7 °F 73% 30.08 in 7.0 mi WNW 13.8 mph 21.9 mph N/A Snow Light Snow
7:55 PM 19.8 °F 5.9 °F 12.4 °F 73% 30.09 in 7.0 mi WNW 15.0 mph 27.6 mph N/A Snow Light Snow
8:15 PM 19.4 °F 7.2 °F 12.2 °F 74% 30.10 in 7.0 mi WNW 11.5 mph 21.9 mph N/A Snow Light Snow
8:35 PM 19.2 °F - 11.5 °F 72% 30.11 in 7.0 mi Calm Calm - N/A Snow Light Snow
8:55 PM 18.5 °F 4.9 °F 10.2 °F 70% 30.12 in 10.0 mi North 13.8 mph 21.9 mph N/A Snow Light Snow
9:15 PM 18.0 °F 4.2 °F 9.5 °F 70% 30.12 in 10.0 mi NW 13.8 mph 20.7 mph N/A Snow Light Snow
9:35 PM 17.6 °F 3.7 °F 8.4 °F 67% 30.12 in 10.0 mi NW 13.8 mph 24.2 mph N/A   Unknown
9:55 PM 17.1 °F -0.3 °F 8.2 °F 68% 30.13 in 10.0 mi WNW 21.9 mph 29.9 mph N/A   Unknown
10:15 PM 16.7 °F 0.1 °F 7.5 °F 67% 30.14 in 10.0 mi NW 19.6 mph 28.8 mph N/A   Unknown
10:35 PM 16.2 °F 3.9 °F 7.5 °F 69% 30.15 in 10.0 mi NW 10.4 mph 29.9 mph N/A   Scattered Clouds
10:55 PM 16.2 °F 1.9 °F 7.7 °F 69% 30.15 in 10.0 mi NW 13.8 mph 20.7 mph N/A   Clear
11:15 PM 15.8 °F 2.1 °F 7.5 °F 70% 30.16 in 10.0 mi NW 12.7 mph 27.6 mph N/A   Unknown
11:35 PM 15.8 °F 0.9 °F 7.9 °F 71% 30.16 in 10.0 mi WNW 15.0 mph 23.0 mph N/A Snow Light Snow
11:55 PM 15.4 °F -0.1 °F 7.7 °F 71% 30.15 in 10.0 mi WNW 16.1 mph 23.0 mph N/A Snow Light Snow